| time (UTC) | temp F | wind direction | speed knots | gust knots | rain 1hr in | rain 24hr in | rain mn in | humidity % | barometer mb |
| 20260902174316 | 102 | 49 | 0.9 | 5.2 | 0.00 | 0.00 | 0.00 | 58 | 1018.5 |
| 20260902173330 | 101 | 97 | 0.9 | 4.3 | 0.00 | 0.00 | 0.00 | 60 | 1018.5 |
| 20260902172353 | 101 | 94 | 1.7 | 4.3 | 0.00 | 0.00 | 0.00 | 59 | 1018.5 |
| 20260902171310 | 101 | 34 | 1.7 | 6.1 | 0.00 | 0.00 | 0.00 | 59 | 1018.7 |
| 20260902170326 | 101 | 340 | 1.7 | 5.2 | 0.00 | 0.00 | 0.00 | 58 | 1018.8 |
| 20260902165327 | 101 | 64 | 2.6 | 5.2 | 0.00 | 0.00 | 0.00 | 59 | 1018.8 |
| 20260902164336 | 101 | 165 | 1.7 | 5.2 | 0.00 | 0.00 | 0.00 | 61 | 1018.9 |
| 20260902163332 | 100 | 145 | 3.5 | 7.0 | 0.00 | 0.00 | 0.00 | 60 | 1019.0 |
| 20260902162331 | 100 | 30 | 1.7 | 5.2 | 0.00 | 0.00 | 0.00 | 61 | 1019.1 |
| 20260902161321 | 100 | 28 | 2.6 | 7.0 | 0.00 | 0.00 | 0.00 | 59 | 1019.1 |
| 20260902160311 | 100 | 146 | 1.7 | 7.0 | 0.00 | 0.00 | 0.00 | 59 | 1019.2 |
| 20260902155326 | 99 | 166 | 1.7 | 6.1 | 0.00 | 0.00 | 0.00 | 60 | 1019.2 |
| 20260902154323 | 98 | 99 | 2.6 | 5.2 | 0.00 | 0.00 | 0.00 | 62 | 1019.2 |
| 20260902153313 | 97 | 350 | 1.7 | 4.3 | 0.00 | 0.00 | 0.00 | 63 | 1019.3 |
| 20260902152330 | 96 | 69 | 1.7 | 4.3 | 0.00 | 0.00 | 0.00 | 67 | 1019.2 |
| 20260902151320 | 95 | 131 | 1.7 | 3.5 | 0.00 | 0.00 | 0.00 | 67 | 1019.1 |
| 20260902150316 | 94 | 338 | 1.7 | 3.5 | 0.00 | 0.00 | 0.00 | 69 | 1019.0 |
| 20260902145324 | 93 | 5 | 2.6 | 3.5 | 0.00 | 0.00 | 0.00 | 69 | 1019.0 |
| 20260902144325 | 92 | 347 | 0.9 | 2.6 | 0.00 | 0.00 | 0.00 | 71 | 1018.9 |
| 20260902143334 | 91 | 42 | 1.7 | 3.5 | 0.00 | 0.00 | 0.00 | 73 | 1018.9 |
| 20260902142311 | 90 | 215 | 1.7 | 4.3 | 0.00 | 0.00 | 0.00 | 73 | 1019.0 |
| 20260902141328 | 90 | 255 | 2.6 | 5.2 | 0.00 | 0.00 | 0.00 | 74 | 1018.8 |
| 20260902140325 | 89 | 340 | 1.7 | 2.6 | 0.00 | 0.00 | 0.00 | 77 | 1018.8 |
| 20260902135320 | 89 | 225 | 2.6 | 3.5 | 0.00 | 0.00 | 0.00 | 76 | 1018.9 |
| 20260902134341 | 88 | 261 | 1.7 | 2.6 | 0.00 | 0.00 | 0.00 | 78 | 1018.9 |
| 20260902133335 | 87 | 310 | 1.7 | 3.5 | 0.00 | 0.00 | 0.00 | 78 | 1018.9 |
| 20260902132309 | 86 | 261 | 1.7 | 3.5 | 0.00 | 0.00 | 0.00 | 80 | 1018.9 |
| 20260902131317 | 85 | 244 | 2.6 | 3.5 | 0.00 | 0.00 | 0.00 | 81 | 1018.9 |
| 20260902130332 | 85 | 259 | 2.6 | 5.2 | 0.00 | 0.00 | 0.00 | 82 | 1019.0 |
| 20260902125334 | 84 | 250 | 1.7 | 4.3 | 0.00 | 0.00 | 0.00 | 85 | 1018.9 |
| 20260902124311 | 83 | 256 | 3.5 | 5.2 | 0.00 | 0.00 | 0.00 | 86 | 1019.0 |
| 20260902123334 | 82 | 215 | 3.5 | 6.1 | 0.00 | 0.00 | 0.00 | 86 | 1019.1 |
| 20260902122310 | 81 | 223 | 4.3 | 7.0 | 0.00 | 0.00 | 0.00 | 87 | 1019.1 |
| 20260902121336 | 81 | 279 | 3.5 | 7.0 | 0.00 | 0.00 | 0.00 | 88 | 1019.1 |
| 20260902120329 | 80 | 223 | 3.5 | 6.1 | 0.00 | 0.00 | 0.00 | 89 | 1019.1 |
| 20260902115325 | 80 | 265 | 3.5 | 5.2 | 0.00 | 0.00 | 0.00 | 89 | 1019.2 |
| 20260902114329 | 80 | 223 | 1.7 | 5.2 | 0.00 | 0.00 | 0.00 | 89 | 1019.2 |
| 20260902113350 | 79 | 248 | 1.7 | 3.5 | 0.00 | 0.00 | 0.00 | 90 | 1019.2 |
| 20260902112323 | 79 | 242 | 1.7 | 3.5 | 0.00 | 0.00 | 0.00 | 90 | 1019.1 |
| 20260902111342 | 79 | 257 | 1.7 | 3.5 | 0.00 | 0.00 | 0.00 | 89 | 1019.1 |
| 20260902110313 | 79 | 188 | 1.7 | 6.1 | 0.00 | 0.00 | 0.00 | 89 | 1018.8 |
| 20260902105333 | 79 | 259 | 2.6 | 3.5 | 0.00 | 0.00 | 0.00 | 89 | 1018.8 |
| 20260902104330 | 79 | 242 | 2.6 | 4.3 | 0.00 | 0.00 | 0.00 | 89 | 1018.7 |
| 20260902103350 | 80 | 251 | 1.7 | 4.3 | 0.00 | 0.00 | 0.00 | 88 | 1018.7 |
| 20260902102332 | 80 | 201 | 1.7 | 4.3 | 0.00 | 0.00 | 0.00 | 88 | 1018.7 |
| 20260902101324 | 80 | 194 | 2.6 | 4.3 | 0.00 | 0.00 | 0.00 | 88 | 1018.7 |
| 20260902100318 | 80 | 255 | 2.6 | 6.1 | 0.00 | 0.00 | 0.00 | 88 | 1018.6 |
| 20260902095338 | 80 | 223 | 2.6 | 4.3 | 0.00 | 0.00 | 0.00 | 87 | 1018.6 |
| 20260902094311 | 80 | 244 | 2.6 | 4.3 | 0.00 | 0.00 | 0.00 | 87 | 1018.5 |
| 20260902093312 | 80 | 210 | 2.6 | 6.1 | 0.00 | 0.00 | 0.00 | 87 | 1018.6 |
| 20260902092310 | 80 | 237 | 1.7 | 5.2 | 0.00 | 0.00 | 0.00 | 86 | 1018.7 |
| 20260902091331 | 81 | 233 | 2.6 | 7.0 | 0.00 | 0.00 | 0.00 | 86 | 1018.6 |
| 20260902090324 | 81 | 219 | 1.7 | 5.2 | 0.00 | 0.00 | 0.00 | 85 | 1018.5 |
| 20260902085318 | 81 | 236 | 2.6 | 6.1 | 0.00 | 0.00 | 0.00 | 85 | 1018.5 |
| 20260902084337 | 81 | 254 | 1.7 | 6.1 | 0.00 | 0.00 | 0.00 | 85 | 1018.5 |
| 20260902083310 | 81 | 217 | 2.6 | 4.3 | 0.00 | 0.00 | 0.00 | 84 | 1018.5 |
| 20260902082331 | 81 | 219 | 2.6 | 7.8 | 0.00 | 0.00 | 0.00 | 84 | 1018.4 |
| 20260902081314 | 81 | 196 | 2.6 | 6.1 | 0.00 | 0.00 | 0.00 | 84 | 1018.3 |
| 20260902080311 | 81 | 229 | 3.5 | 7.0 | 0.00 | 0.00 | 0.00 | 84 | 1018.4 |
| 20260902075334 | 81 | 206 | 3.5 | 7.0 | 0.00 | 0.00 | 0.00 | 83 | 1018.4 |
| 20260902074309 | 81 | 150 | 2.6 | 6.1 | 0.00 | 0.00 | 0.00 | 83 | 1018.4 |
| 20260902073332 | 81 | 161 | 2.6 | 4.3 | 0.00 | 0.00 | 0.00 | 83 | 1018.4 |
| 20260902072328 | 81 | 150 | 1.7 | 6.1 | 0.00 | 0.00 | 0.00 | 83 | 1018.4 |
| 20260902071324 | 82 | 234 | 1.7 | 5.2 | 0.00 | 0.00 | 0.00 | 83 | 1018.4 |
| 20260902070327 | 82 | 164 | 2.6 | 4.3 | 0.00 | 0.00 | 0.00 | 83 | 1018.6 |
| 20260902065319 | 82 | 205 | 2.6 | 4.3 | 0.00 | 0.00 | 0.00 | 82 | 1018.6 |
| 20260902064317 | 82 | 163 | 2.6 | 4.3 | 0.00 | 0.00 | 0.00 | 82 | 1018.7 |
| 20260902063319 | 82 | 194 | 1.7 | 5.2 | 0.00 | 0.00 | 0.00 | 83 | 1018.7 |
| 20260902062316 | 82 | 184 | 2.6 | 5.2 | 0.00 | 0.00 | 0.00 | 82 | 1018.8 |
| 20260902061335 | 82 | 213 | 2.6 | 5.2 | 0.00 | 0.00 | 0.00 | 83 | 1018.7 |
| 20260902060309 | 82 | 95 | 2.6 | 7.8 | 0.00 | 0.00 | 0.00 | 83 | 1018.7 |
| 20260902055328 | 82 | 195 | 2.6 | 6.1 | 0.00 | 0.00 | 0.00 | 84 | 1018.7 |
| 20260902054322 | 83 | 187 | 1.7 | 6.1 | 0.00 | 0.00 | 0.00 | 84 | 1018.7 |
| 20260902053313 | 83 | 146 | 1.7 | 4.3 | 0.00 | 0.00 | 0.00 | 84 | 1018.7 |
| 20260902052325 | 83 | 176 | 1.7 | 6.1 | 0.00 | 0.00 | 0.00 | 84 | 1018.6 |
| 20260902051347 | 83 | 147 | 3.5 | 7.0 | 0.00 | 0.00 | 0.00 | 83 | 1018.7 |
| 20260902050346 | 83 | 210 | 2.6 | 6.1 | 0.00 | 0.00 | 0.00 | 83 | 1018.6 |
| 20260902045337 | 83 | 256 | 2.6 | 5.2 | 0.00 | 0.00 | 0.00 | 83 | 1018.5 |
| 20260902044337 | 84 | 130 | 2.6 | 4.3 | 0.00 | 0.00 | 0.00 | 83 | 1018.5 |
| 20260902043310 | 84 | 184 | 1.7 | 6.1 | 0.00 | 0.00 | 0.00 | 83 | 1018.5 |
| 20260902042327 | 84 | 69 | 2.6 | 6.1 | 0.00 | 0.00 | 0.00 | 82 | 1018.3 |
| 20260902041324 | 84 | 142 | 2.6 | 5.2 | 0.00 | 0.00 | 0.00 | 82 | 1018.2 |
| 20260902040321 | 85 | 161 | 2.6 | 5.2 | 0.00 | 0.00 | 0.00 | 82 | 1018.2 |
| 20260902035314 | 85 | 226 | 3.5 | 6.1 | 0.00 | 0.00 | 0.00 | 81 | 1018.1 |
| 20260902034316 | 85 | 158 | 2.6 | 5.2 | 0.00 | 0.00 | 0.00 | 81 | 1018.1 |
| 20260902033312 | 85 | 184 | 2.6 | 6.1 | 0.00 | 0.00 | 0.00 | 80 | 1018.0 |
| 20260902032309 | 86 | 63 | 3.5 | 6.1 | 0.00 | 0.00 | 0.00 | 79 | 1018.1 |
| 20260902031313 | 86 | 173 | 2.6 | 7.0 | 0.00 | 0.00 | 0.00 | 79 | 1018.0 |
| 20260902030310 | 86 | 205 | 1.7 | 7.0 | 0.00 | 0.00 | 0.00 | 78 | 1017.9 |
| 20260902025311 | 86 | 167 | 2.6 | 5.2 | 0.00 | 0.00 | 0.00 | 78 | 1018.0 |
| 20260902024313 | 86 | 155 | 2.6 | 4.3 | 0.00 | 0.00 | 0.00 | 77 | 1018.0 |
| 20260902023309 | 87 | 122 | 2.6 | 6.1 | 0.00 | 0.00 | 0.00 | 76 | 1017.9 |
| 20260902022331 | 87 | 144 | 2.6 | 5.2 | 0.00 | 0.00 | 0.00 | 75 | 1018.0 |
| 20260902021325 | 87 | 217 | 2.6 | 5.2 | 0.00 | 0.00 | 0.00 | 75 | 1017.9 |
| 20260902020344 | 87 | 187 | 2.6 | 4.3 | 0.00 | 0.00 | 0.00 | 75 | 1017.8 |
| 20260902015324 | 87 | 157 | 2.6 | 4.3 | 0.00 | 0.00 | 0.00 | 74 | 1017.7 |
| 20260902014320 | 87 | 145 | 2.6 | 4.3 | 0.00 | 0.00 | 0.00 | 74 | 1017.5 |
| 20260902013316 | 87 | 136 | 2.6 | 5.2 | 0.00 | 0.00 | 0.00 | 73 | 1017.5 |
| 20260902012320 | 88 | 175 | 1.7 | 4.3 | 0.00 | 0.00 | 0.00 | 72 | 1017.4 |
| 20260902011318 | 88 | 158 | 1.7 | 4.3 | 0.00 | 0.00 | 0.00 | 72 | 1017.3 |
| 20260902010314 | 88 | 153 | 1.7 | 3.5 | 0.00 | 0.00 | 0.00 | 72 | 1017.2 |
| 20260902005316 | 88 | 175 | 2.6 | 4.3 | 0.00 | 0.00 | 0.00 | 72 | 1017.1 |
| 20260902004312 | 89 | 184 | 1.7 | 4.3 | 0.00 | 0.00 | 0.00 | 71 | 1017.0 |
| 20260902003335 | 89 | 155 | 1.7 | 3.5 | 0.00 | 0.00 | 0.00 | 71 | 1017.0 |
| 20260902002356 | 89 | 161 | 1.7 | 3.5 | 0.00 | 0.00 | 0.00 | 70 | 1016.9 |
| 20260902001326 | 90 | 151 | 2.6 | 5.2 | 0.00 | 0.00 | 0.00 | 70 | 1017.0 |
| 20260902000322 | 90 | 150 | 2.6 | 4.3 | 0.00 | 0.00 | 0.00 | 70 | 1017.1 |
| 20260901235323 | 90 | 115 | 2.6 | 4.3 | 0.00 | 0.00 | 0.00 | 69 | 1017.2 |
| 20260901234322 | 91 | 122 | 2.6 | 4.3 | 0.00 | 0.00 | 0.00 | 68 | 1017.2 |
| 20260901233324 | 91 | 163 | 2.6 | 4.3 | 0.00 | 0.00 | 0.00 | 68 | 1017.2 |
| 20260901232320 | 92 | 153 | 2.6 | 5.2 | 0.00 | 0.00 | 0.00 | 68 | 1017.2 |
| 20260901231315 | 92 | 146 | 2.6 | 5.2 | 0.00 | 0.00 | 0.00 | 67 | 1017.2 |
| 20260901230318 | 93 | 157 | 3.5 | 5.2 | 0.00 | 0.00 | 0.00 | 66 | 1017.3 |
| 20260901225314 | 93 | 155 | 2.6 | 5.2 | 0.00 | 0.00 | 0.00 | 66 | 1017.4 |
| 20260901224309 | 94 | 171 | 1.7 | 4.3 | 0.00 | 0.00 | 0.00 | 66 | 1017.3 |
| 20260901223309 | 95 | 169 | 2.6 | 4.3 | 0.00 | 0.00 | 0.00 | 63 | 1017.2 |
| 20260901222325 | 95 | 133 | 2.6 | 5.2 | 0.00 | 0.00 | 0.00 | 63 | 1017.2 |
| 20260901221327 | 96 | 96 | 1.7 | 6.1 | 0.00 | 0.00 | 0.00 | 63 | 1017.3 |
| 20260901220321 | 97 | 34 | 0.9 | 3.5 | 0.00 | 0.00 | 0.00 | 59 | 1017.3 |
| 20260901215317 | 97 | 90 | 0.9 | 2.6 | 0.00 | 0.00 | 0.00 | 59 | 1017.3 |
| 20260901214317 | 98 | 71 | 1.7 | 5.2 | 0.00 | 0.00 | 0.00 | 59 | 1017.3 |
| 20260901213311 | 98 | 76 | 1.7 | 5.2 | 0.00 | 0.00 | 0.00 | 59 | 1017.2 |
| 20260901212313 | 98 | 39 | 1.7 | 5.2 | 0.00 | 0.00 | 0.00 | 59 | 1017.3 |
| 20260901211334 | 98 | 150 | 1.7 | 6.1 | 0.00 | 0.00 | 0.00 | 56 | 1017.2 |
| 20260901210356 | 100 | 169 | 2.6 | 5.2 | 0.00 | 0.00 | 0.00 | 55 | 1017.2 |
| 20260901205345 | 101 | 88 | 3.5 | 7.0 | 0.00 | 0.00 | 0.00 | 55 | 1017.2 |
| 20260901204325 | 101 | 44 | 2.6 | 3.5 | 0.00 | 0.00 | 0.00 | 55 | 1017.2 |
| 20260901203324 | 101 | 44 | 2.6 | 5.2 | 0.00 | 0.00 | 0.00 | 54 | 1017.3 |
| 20260901202316 | 101 | 82 | 1.7 | 5.2 | 0.00 | 0.00 | 0.00 | 51 | 1017.4 |
| 20260901201334 | 100 | 355 | 3.5 | 7.0 | 0.00 | 0.00 | 0.00 | 54 | 1017.3 |
| 20260901200332 | 100 | 90 | 1.7 | 4.3 | 0.00 | 0.00 | 0.00 | 54 | 1017.5 |
| 20260901195324 | 100 | 170 | 1.7 | 4.3 | 0.00 | 0.00 | 0.00 | 56 | 1017.6 |
| 20260901194325 | 99 | 106 | 1.7 | 6.1 | 0.00 | 0.00 | 0.00 | 55 | 1017.7 |
| 20260901193315 | 100 | 56 | 1.7 | 4.3 | 0.00 | 0.00 | 0.00 | 53 | 1017.9 |
| 20260901192332 | 101 | 103 | 1.7 | 6.1 | 0.00 | 0.00 | 0.00 | 54 | 1018.0 |
| 20260901191341 | 100 | 126 | 1.7 | 6.1 | 0.00 | 0.00 | 0.00 | 56 | 1018.1 |
| 20260901190338 | 99 | 171 | 2.6 | 6.1 | 0.00 | 0.00 | 0.00 | 55 | 1018.2 |
| 20260901185334 | 99 | 136 | 2.6 | 7.0 | 0.00 | 0.00 | 0.00 | 58 | 1018.2 |
| 20260901184327 | 98 | 128 | 2.6 | 6.1 | 0.00 | 0.00 | 0.00 | 58 | 1018.2 |
| 20260901183318 | 98 | 57 | 1.7 | 5.2 | 0.00 | 0.00 | 0.00 | 58 | 1018.3 |
| 20260901182318 | 97 | 54 | 1.7 | 4.3 | 0.00 | 0.00 | 0.00 | 60 | 1018.4 |
| 20260901181313 | 98 | 48 | 1.7 | 6.1 | 0.00 | 0.00 | 0.00 | 57 | 1018.4 |
| 20260901180332 | 98 | 88 | 1.7 | 5.2 | 0.00 | 0.00 | 0.00 | 58 | 1018.4 |
| 20260901175323 | 97 | 77 | 0.9 | 2.6 | 0.00 | 0.00 | 0.00 | 58 | 1018.5 |